sat.trackr.live / text

‹ back to catalog

STARLINK-34071

NORAD 63910 · 2025-095W

PAYLOAD ACTIVE UNKNOWN

§ Identity

Operator
Country
US
Launch date
2025-05-10
Launch site
AFETR
Launch vehicle
Mass (kg)
RCS (m²)

Purposes: comms

External: N2YO · Heavens-Above · Gunter

§ Orbital elements

Epoch: 2026-05-25T04:20:24.484416Z

Period
94.27 min
Inclination
42.9993°
Eccentricity
0.0000846
Mean motion
15.27594756 rev/d
Perigee alt
482.4 km
Apogee alt
483.6 km
Semi-major
6,861.1 km
B*
5.3625e-4
RAAN
104.4494°
Arg perigee
263.4792°
Mean anomaly
96.5963°
Rev number
5,947

§ Raw data

STARLINK-340711 63910U 25095W   26145.18083894  .00014530  00000+0  53625-3 0  99952 63910  42.9993 104.4494 0000846 263.4792  96.5963 15.27594756 59478

JSON: /api/v1/satellites/63910 · /tle

For live sub-satellite position, see the globe view (requires WebGL).

§ Visibility from observer

Set your observer location to see the next 7 days of passes ≥ 10°. The values pass through the URL so the page stays shareable.

No JS? Fill the form by hand. The geolocation button needs JavaScript.